Content
SEND FEEDBACK

Daily
Averages
Monthly
Summary
Spain

PUERTO DEL ROSARIO, SPAIN


Home > Europe > Spain
Elevation: 98 feet     Latitude: 28 27N     Longitude: 013 52W

WEATHER
 
SELECT A DAY
Number of Records: 215,988;   Date Range: 7/1/96 - 7/29/14
 
SHARE

PRINT THIS DATA

[ ← Previous Day ]
WEATHER ALMANAC - JANUARY 1, 2013
[ Next Day → ]
[ °C ]   °F
Weather ElementAverageHighLow
Temperature65.2 °F68 °F (1:30 pm)62.6 °F (6:30 am)
Dewpoint53 °F57.2 °F (3:00 pm)46.4 °F (7:00 am)
Humidity64.7 %77 % (9:30 pm)55 % (7:00 am)
Barometer30.24 in30.30 in (10:00 am)30.21 in (2:00 pm)
Wind Speed15.6 mph18.4 mph (9:00 am)
Weather ElementAverage
Visibility6.2 mi
Wind DirectionENE (63.5 °)

Weather ElementTotal
Precipitation---
Cooling Degree Days0.3 (Base 65)
Growing Degree Days15.3 (Base 50)
Averaged from 34 records on January 1, 2013
WEATHER CONDITIONS BREAKOUT
WIND DIRECTION BREAKOUT
WEATHER BY HOUR - JANUARY 1, 2013
[ °C ]   °F
Local TimeTemperatureDewpointHumidityBarometerVisibilityWind DirectionWind SpeedGust SpeedPrecipitationEventsConditions
6:30 AM62.6 °F48.2 °F59 %30.24 in6.2 miNNE (30°)17.3 mphMostly Cloudy
7:00 AM62.6 °F46.4 °F55 %30.24 in6.2 miNE (40°)15.0 mphMostly Cloudy
7:30 AM62.6 °F46.4 °F55 %30.27 in6.2 miNNE (30°)13.8 mphMostly Cloudy
8:00 AM62.6 °F46.4 °F55 %30.27 in6.2 miNorth (10°)15.0 mphMostly Cloudy
8:30 AM62.6 °F46.4 °F55 %30.27 in6.2 miNNE (20°)13.8 mphMostly Cloudy
9:00 AM62.6 °F46.4 °F55 %30.27 in6.2 miNE (50°)18.4 mphMostly Cloudy
9:30 AM62.6 °F46.4 °F55 %30.27 in6.2 miNE (50°)17.3 mphMostly Cloudy
10:00 AM64.4 °F48.2 °F56 %30.30 in6.2 miNE (40°)16.1 mphMostly Cloudy
10:30 AM64.4 °F50.0 °F59 %30.30 in6.2 miNE (40°)13.8 mphMostly Cloudy
11:00 AM66.2 °F51.8 °F60 %30.30 in6.2 miNE (40°)16.1 mphMostly Cloudy
11:30 AM66.2 °F50.0 °F56 %30.27 in6.2 miNE (50°)17.3 mphMostly Cloudy
12:00 PM66.2 °F53.6 °F64 %30.27 in6.2 miNE (50°)18.4 mphMostly Cloudy
12:30 PM66.2 °F53.6 °F64 %30.27 in6.2 miNE (40°)18.4 mphMostly Cloudy
1:00 PM66.2 °F55.4 °F68 %30.24 in6.2 miNE (40°)18.4 mphMostly Cloudy
1:30 PM68.0 °F53.6 °F60 %30.24 in6.2 miNE (50°)16.1 mphScattered Clouds
2:00 PM68.0 °F55.4 °F64 %30.21 in6.2 miNE (40°)16.1 mphScattered Clouds
2:30 PM68.0 °F55.4 °F64 %30.21 in6.2 miNE (40°)16.1 mphScattered Clouds
3:00 PM68.0 °F57.2 °F68 %30.21 in6.2 miNE (50°)16.1 mphScattered Clouds
3:30 PM68.0 °F55.4 °F64 %30.21 in6.2 miNE (50°)16.1 mphScattered Clouds
4:00 PM68.0 °F55.4 °F64 %30.21 in6.2 miNE (50°)17.3 mphScattered Clouds
4:30 PM68.0 °F57.2 °F68 %30.21 in6.2 miNE (40°)16.1 mphScattered Clouds
5:00 PM68.0 °F57.2 °F68 %30.21 in6.2 miNE (50°)15.0 mphScattered Clouds
5:30 PM66.2 °F57.2 °F73 %30.21 in6.2 miNE (50°)15.0 mphScattered Clouds
6:00 PM66.2 °F57.2 °F73 %30.21 in6.2 miNE (50°)16.1 mphScattered Clouds
6:30 PM66.2 °F53.6 °F64 %30.21 in6.2 miNorth (10°)16.1 mphScattered Clouds
7:00 PM66.2 °F53.6 °F64 %30.24 in6.2 miNorth (10°)15.0 mphScattered Clouds
7:30 PM64.4 °F53.6 °F68 %30.24 in6.2 miNorth (360°)12.7 mphScattered Clouds
8:00 PM64.4 °F55.4 °F73 %30.24 in6.2 miNorth (10°)15.0 mphScattered Clouds
8:30 PM64.4 °F55.4 °F73 %30.24 in6.2 miNorth (10°)15.0 mphScattered Clouds
9:00 PM64.4 °F55.4 °F73 %30.24 in6.2 miNorth (10°)12.7 mphScattered Clouds
9:30 PM62.6 °F55.4 °F77 %30.24 in6.2 miNorth (360°)10.4 mphScattered Clouds
10:00 PM64.4 °F57.2 °F77 %30.24 in6.2 miNNE (20°)16.1 mphScattered Clouds
10:30 PM64.4 °F55.4 °F73 %30.24 in6.2 miNorth (10°)15.0 mphScattered Clouds
11:00 PM62.6 °F55.4 °F77 %30.24 in6.2 miNorth (360°)13.8 mphScattered Clouds
Hourly data recorded from GCFV, located miles away from Puerto del Rosario, Spain







STORIES FROM OUR PARTNERS